MST,Max TemperatureF,Mean TemperatureF,Min TemperatureF,Max Dew PointF,MeanDew PointF,Min DewpointF,Max Humidity, Mean Humidity, Min Humidity, Max Sea Level PressureIn, Mean Sea Level PressureIn, Min Sea Level PressureIn, Max VisibilityMiles, Mean VisibilityMiles, Min VisibilityMiles, Max Wind SpeedMPH, Mean Wind SpeedMPH, Max Gust SpeedMPH,PrecipitationIn, CloudCover, Events, WindDirDegrees
2012-9-1,105,95,84,74,57,38,70,41,11,29.86,29.79,29.73,10,10,10,10,5,13,T,5,,219
2012-9-2,109,95,80,67,47,36,47,29,10,29.84,29.77,29.70,10,10,10,15,5,20,0.00,3,,194
2012-9-3,104,95,86,76,72,65,68,49,29,29.90,29.84,29.79,10,10,10,25,13,31,0.00,3,,172
2012-9-4,102,94,85,74,70,67,63,48,33,29.95,29.88,29.82,10,10,7,17,10,22,0.00,5,,177
2012-9-5,104,94,83,76,71,63,79,53,27,29.89,29.83,29.74,10,10,10,20,8,24,0.00,3,,181
2012-9-6,101,94,86,76,69,63,74,52,29,29.87,29.82,29.77,10,10,10,21,10,25,T,4,Thunderstorm,170
2012-9-7,100,93,85,72,67,63,65,48,31,29.92,29.85,29.80,10,10,10,13,6,16,0.00,5,,143
2012-9-8,103,95,87,70,67,64,53,42,31,29.86,29.81,29.74,10,10,10,20,6,22,T,6,Rain,117
2012-9-9,104,91,77,72,64,58,79,52,25,29.90,29.81,29.72,10,9,0,52,10,64,0.14,5,Rain-Thunderstorm,103
2012-9-10,83,79,75,73,70,66,79,73,67,29.93,29.88,29.81,10,10,7,18,6,22,0.17,6,Rain-Thunderstorm,134
2012-9-11,90,84,77,70,68,66,76,62,47,29.91,29.86,29.82,10,10,10,13,7,17,0.00,5,,143
2012-9-12,98,88,78,71,67,61,79,57,35,29.95,29.89,29.83,10,10,10,12,4,17,T,2,Rain,291
2012-9-13,104,92,80,73,64,56,79,50,20,29.94,29.89,29.83,10,10,10,14,4,17,0.00,0,,99
2012-9-14,102,93,84,62,46,28,43,26,8,29.97,29.92,29.88,10,10,7,30,14,37,0.00,0,,70
2012-9-15,100,89,78,62,44,36,37,24,11,30.02,29.95,29.89,10,10,10,23,9,28,0.00,0,,85
2012-9-16,100,89,77,71,64,59,67,48,28,29.99,29.93,29.86,10,10,10,18,6,21,0.00,2,,202
2012-9-17,101,90,79,73,60,41,79,46,13,29.93,29.86,29.80,10,10,10,14,6,15,0.00,1,,179
2012-9-18,103,90,77,73,59,41,79,46,13,29.93,29.86,29.81,10,10,10,10,4,13,0.00,1,,189
2012-9-19,106,93,80,62,53,43,51,32,12,29.91,29.84,29.78,10,10,10,9,3,22,0.00,1,,293
2012-9-20,108,94,80,59,48,35,40,25,9,29.88,29.81,29.75,10,10,10,17,4,21,0.00,2,,192
2012-9-21,108,94,80,63,51,34,45,27,8,29.84,29.78,29.73,10,10,7,12,3,16,0.00,2,,188
2012-9-22,107,93,79,55,48,39,42,27,11,29.84,29.79,29.75,10,10,10,10,2,14,0.00,4,,208
2012-9-23,107,94,81,55,46,35,37,23,9,29.88,29.82,29.78,10,10,10,12,2,15,0.00,3,,189
2012-9-24,105,92,78,76,54,36,91,50,9,29.90,29.81,29.73,10,10,10,14,8,18,0.00,2,,214
2012-9-25,99,87,74,49,44,39,39,26,12,29.82,29.75,29.68,10,10,10,15,6,18,0.00,0,,269
2012-9-26,99,86,72,66,47,41,58,36,14,29.80,29.75,29.70,10,10,10,12,4,14,0.00,0,,191
2012-9-27,98,88,77,71,64,47,79,49,18,29.88,29.83,29.78,10,10,10,15,7,18,0.00,2,,163
2012-9-28,98,87,75,70,61,51,76,49,21,29.88,29.81,29.75,10,10,10,10,4,15,0.00,1,,181
2012-9-29,102,89,76,59,51,41,54,34,13,29.91,29.85,29.80,10,10,10,8,2,12,0.00,1,,305
2012-9-30,109,92,74,54,41,28,43,25,7,29.92,29.84,29.78,10,10,10,14,3,18,0.00,0,,322